When you browse on this site, cookies collect data to enhance your experience and personalize the content and advertising you see.
Visit our Privacy Policy to learn more. By continuing to use the site, you agree to this use of cookies and data.
  • In Spain
  • List of Countries
  • For 7 days
  • Water Temperature
  • Weather Map
  • Weather Widgets
  • user-avatar
    Login

    Hourly Weather Osorno

    Today, 26 January, Sunday

    Time Temperature Precipitation Wind Pressure Humidity
    00:00 +16°C° 0 mm 1 mps 761 mmHg 97%
    01:00 +15°C° 0 mm 0 mps 761 mmHg 98%
    02:00 +15°C° 0 mm 0 mps 761 mmHg 98%
    03:00 +15°C° 0 mm 1 mps 761 mmHg 97%
    04:00 +15°C° 0 mm 1 mps 761 mmHg 96%
    05:00 +15°C° 0 mm 1 mps 761 mmHg 93%
    06:00 +16°C° 0 mm 1 mps 762 mmHg 90%
    07:00 +18°C° 0 mm 1 mps 762 mmHg 85%
    08:00 +20°C° 0 mm 1 mps 762 mmHg 73%
    09:00 +22°C° 0 mm 1 mps 763 mmHg 62%
    10:00 +24°C° 0 mm 1 mps 763 mmHg 51%
    11:00 +25°C° 0 mm 1 mps 762 mmHg 45%
    12:00 +26°C° 0 mm 2 mps 762 mmHg 39%
    13:00 +27°C° 0 mm 2 mps 762 mmHg 33%
    14:00 +27°C° 0 mm 2 mps 762 mmHg 33%
    15:00 +27°C° 0 mm 2 mps 762 mmHg 33%
    16:00 +27°C° 0 mm 2 mps 762 mmHg 34%
    17:00 +25°C° 0 mm 2 mps 762 mmHg 40%
    18:00 +21°C° 0 mm 2 mps 762 mmHg 47%
    19:00 +19°C° 0 mm 2 mps 762 mmHg 53%
    20:00 +16°C° 0 mm 1 mps 762 mmHg 61%
    21:00 +14°C° 0 mm 1 mps 763 mmHg 68%
    22:00 +12°C° 0 mm 1 mps 763 mmHg 76%
    23:00 +10°C° 0 mm 0 mps 762 mmHg 79%

    Tomorrow, 27 January, Monday

    Time Temperature Precipitation Wind Pressure Humidity
    00:00 +9°C° 0 mm 0 mps 762 mmHg 82%
    01:00 +8°C° 0 mm 0 mps 762 mmHg 84%
    02:00 +8°C° 0 mm 0 mps 762 mmHg 86%
    03:00 +7°C° 0 mm 0 mps 762 mmHg 87%
    04:00 +7°C° 0 mm 0 mps 761 mmHg 88%
    05:00 +9°C° 0 mm 0 mps 761 mmHg 80%
    06:00 +11°C° 0 mm 0 mps 761 mmHg 72%
    07:00 +14°C° 0 mm 1 mps 761 mmHg 64%
    08:00 +18°C° 0 mm 1 mps 760 mmHg 54%
    09:00 +21°C° 0 mm 1 mps 760 mmHg 44%
    10:00 +25°C° 0 mm 1 mps 760 mmHg 34%
    11:00 +26°C° 0 mm 1 mps 759 mmHg 29%
    12:00 +28°C° 0 mm 1 mps 759 mmHg 25%
    13:00 +30°C° 0 mm 1 mps 759 mmHg 21%
    14:00 +29°C° 0 mm 2 mps 759 mmHg 25%
    15:00 +29°C° 0 mm 2 mps 759 mmHg 29%
    16:00 +28°C° 0 mm 2 mps 758 mmHg 34%
    17:00 +26°C° 0 mm 2 mps 758 mmHg 45%
    18:00 +24°C° 0 mm 2 mps 758 mmHg 57%
    19:00 +20°C° 0 mm 2 mps 758 mmHg 68%
    20:00 +19°C° 0 mm 2 mps 758 mmHg 75%
    21:00 +19°C° 0 mm 1 mps 758 mmHg 82%
    22:00 +18°C° 0 mm 1 mps 758 mmHg 89%
    23:00 +18°C° 0 mm 1 mps 757 mmHg 90%

    Day after tomorrow, 28 January, Tuesday

    Time Temperature Precipitation Wind Pressure Humidity
    00:00 +18°C° 0 mm 1 mps 757 mmHg 91%
    01:00 +16°C° 0 mm 0 mps 757 mmHg 92%
    02:00 +16°C° 0.1 mm 0 mps 756 mmHg 93%
    03:00 +18°C° 0.1 mm 1 mps 756 mmHg 94%
    04:00 +18°C° 0.1 mm 1 mps 756 mmHg 95%
    05:00 +18°C° 0.2 mm 1 mps 756 mmHg 94%
    06:00 +16°C° 0.2 mm 2 mps 757 mmHg 92%
    07:00 +16°C° 0.2 mm 2 mps 757 mmHg 90%
    08:00 +17°C° 0 mm 2 mps 757 mmHg 79%
    09:00 +18°C° 0 mm 2 mps 757 mmHg 69%
    10:00 +19°C° 0 mm 2 mps 758 mmHg 58%
    11:00 +19°C° 0 mm 3 mps 758 mmHg 54%
    12:00 +19°C° 0 mm 3 mps 758 mmHg 50%
    13:00 +20°C° 0 mm 3 mps 758 mmHg 45%
    14:00 +19°C° 0 mm 3 mps 758 mmHg 45%
    15:00 +19°C° 0 mm 3 mps 758 mmHg 46%
    16:00 +18°C° 0 mm 3 mps 759 mmHg 46%
    17:00 +17°C° 0 mm 3 mps 759 mmHg 50%
    18:00 +16°C° 0 mm 2 mps 760 mmHg 54%
    19:00 +15°C° 0 mm 2 mps 760 mmHg 58%
    20:00 +13°C° 0 mm 2 mps 761 mmHg 65%
    21:00 +12°C° 0 mm 2 mps 761 mmHg 72%
    22:00 +10°C° 0 mm 1 mps 762 mmHg 79%
    23:00 +10°C° 0 mm 1 mps 762 mmHg 83%

    29 January, Wednesday

    Time Temperature Precipitation Wind Pressure Humidity
    00:00 +9°C° 0 mm 1 mps 762 mmHg 88%
    01:00 +8°C° 0 mm 1 mps 762 mmHg 92%
    02:00 +8°C° 0 mm 1 mps 762 mmHg 92%
    03:00 +8°C° 0 mm 1 mps 762 mmHg 92%
    04:00 +8°C° 0 mm 1 mps 762 mmHg 92%
    05:00 +9°C° 0 mm 1 mps 763 mmHg 84%
    06:00 +9°C° 0 mm 2 mps 763 mmHg 77%
    07:00 +12°C° 0 mm 2 mps 763 mmHg 69%
    08:00 +14°C° 0 mm 2 mps 763 mmHg 60%
    09:00 +15°C° 0 mm 2 mps 763 mmHg 52%
    10:00 +17°C° 0 mm 2 mps 762 mmHg 43%
    11:00 +19°C° 0 mm 2 mps 762 mmHg 39%
    12:00 +20°C° 0 mm 2 mps 762 mmHg 36%
    13:00 +21°C° 0 mm 3 mps 762 mmHg 33%
    14:00 +21°C° 0 mm 3 mps 762 mmHg 34%
    15:00 +21°C° 0 mm 3 mps 761 mmHg 36%
    16:00 +21°C° 0 mm 3 mps 761 mmHg 38%
    17:00 +19°C° 0 mm 2 mps 761 mmHg 45%
    18:00 +17°C° 0 mm 2 mps 762 mmHg 53%
    19:00 +15°C° 0 mm 2 mps 762 mmHg 61%
    20:00 +13°C° 0 mm 1 mps 762 mmHg 69%
    21:00 +11°C° 0 mm 1 mps 762 mmHg 78%
    22:00 +9°C° 0 mm 1 mps 763 mmHg 86%
    23:00 +8°C° 0 mm 1 mps 762 mmHg 90%

    30 January, Thursday

    Time Temperature Precipitation Wind Pressure Humidity
    00:00 +8°C° 0 mm 1 mps 762 mmHg 93%
    01:00 +6°C° 0 mm 0 mps 762 mmHg 96%
    02:00 +6°C° 0 mm 0 mps 762 mmHg 97%
    03:00 +6°C° 0 mm 0 mps 761 mmHg 97%
    04:00 +6°C° 0 mm 0 mps 761 mmHg 98%
    05:00 +7°C° 0 mm 0 mps 761 mmHg 91%
    06:00 +10°C° 0 mm 1 mps 761 mmHg 84%
    07:00 +12°C° 0 mm 1 mps 761 mmHg 77%
    08:00 +15°C° 0 mm 1 mps 761 mmHg 64%
    09:00 +19°C° 0 mm 1 mps 761 mmHg 51%
    10:00 +22°C° 0 mm 1 mps 760 mmHg 39%
    11:00 +24°C° 0 mm 2 mps 760 mmHg 38%
    12:00 +26°C° 0 mm 2 mps 760 mmHg 37%
    13:00 +27°C° 0 mm 2 mps 760 mmHg 37%
    14:00 +27°C° 0 mm 2 mps 759 mmHg 40%
    15:00 +26°C° 0 mm 2 mps 759 mmHg 43%
    16:00 +26°C° 0 mm 3 mps 759 mmHg 46%
    17:00 +24°C° 0 mm 2 mps 759 mmHg 55%
    18:00 +21°C° 0 mm 2 mps 759 mmHg 64%
    19:00 +20°C° 0 mm 1 mps 760 mmHg 72%
    20:00 +19°C° 0 mm 1 mps 760 mmHg 79%
    21:00 +16°C° 0 mm 1 mps 760 mmHg 86%
    22:00 +14°C° 0 mm 0 mps 760 mmHg 93%
    23:00 +14°C° 0 mm 0 mps 760 mmHg 93%

    31 January, Friday

    Time Temperature Precipitation Wind Pressure Humidity
    00:00 +14°C° 0 mm 0 mps 760 mmHg 92%
    01:00 +14°C° 0 mm 0 mps 759 mmHg 92%
    02:00 +14°C° 0 mm 0 mps 759 mmHg 93%
    03:00 +14°C° 0 mm 0 mps 759 mmHg 93%
    04:00 +14°C° 0 mm 0 mps 759 mmHg 94%
    05:00 +15°C° 0 mm 0 mps 759 mmHg 90%
    06:00 +16°C° 0 mm 0 mps 759 mmHg 87%
    07:00 +17°C° 0 mm 0 mps 759 mmHg 83%
    08:00 +19°C° 0 mm 0 mps 759 mmHg 72%
    09:00 +22°C° 0 mm 0 mps 759 mmHg 62%
    10:00 +24°C° 0 mm 0 mps 759 mmHg 51%
    11:00 +28°C° 0 mm 1 mps 759 mmHg 45%
    12:00 +29°C° 0 mm 1 mps 759 mmHg 39%
    13:00 +30°C° 0 mm 1 mps 758 mmHg 33%
    14:00 +29°C° 0 mm 2 mps 758 mmHg 33%
    15:00 +29°C° 0 mm 2 mps 758 mmHg 34%
    16:00 +28°C° 0 mm 2 mps 758 mmHg 34%
    17:00 +26°C° 0 mm 2 mps 758 mmHg 44%
    18:00 +24°C° 0 mm 2 mps 758 mmHg 54%
    19:00 +20°C° 0 mm 2 mps 758 mmHg 64%
    20:00 +20°C° 0 mm 1 mps 758 mmHg 74%
    21:00 +18°C° 0 mm 1 mps 758 mmHg 83%
    22:00 +15°C° 0 mm 1 mps 757 mmHg 93%
    23:00 +14°C° 0 mm 0 mps 757 mmHg 94%
    Show more